{"data":{"norad_id":37789,"epoch":"2026-05-25T05:01:54.771744Z","epoch_age_seconds":54114,"freshness":"FRESH","line1":"1 37789U 11044B   26145.20966171  .00000737  00000+0  12870-3 0  9991","line2":"2 37789  97.8768 123.1530 0029448 193.1210 257.1043 14.70495339787199","mean_motion":14.70495339,"eccentricity":0.0029448,"inclination_deg":97.8768,"raan_deg":123.153,"arg_perigee_deg":193.121,"mean_anomaly_deg":257.1043,"bstar":0.0001287,"rev_number":78719,"period_min":97.926185946245,"perigee_km":638.76281695445,"apogee_km":680.21160851778,"semimajor_km":7037.6242127361,"source":"CELESTRAK","updated_at":"2026-05-25T13:37:55.264562Z"}}